1501372801.03,55388,19.94,74470.8,7.63,-22.63,-23.19,0,*70
1501372802.26,55389,19.94,74470.0,7.63,-22.63,-23.19,0,*71
1501372803.48,55390,19.94,74472.3,7.63,-22.63,-23.19,0,*79
1501372804.7,55391,19.94,74468.8,7.63,-22.63,-23.19,0,*78
1501372805.91,55392,19.94,74470.0,7.63,-22.63,-23.29,0,*78
1501372807.13,55393,19.94,74472.8,7.63,-22.63,-23.19,0,*7A
1501372808.38,55394,19.94,74472.5,7.61,-22.67,-23.33,0,*73
1501372809.64,55395,19.94,74470.3,7.61,-22.67,-23.23,0,*73
1501372810.87,55396,19.94,74470.0,7.59,-22.57,-23.23,0,*78
1501372812.11,55397,19.94,74468.8,7.59,-22.57,-23.23,0,*79
1501372813.33,55398,19.94,74468.5,7.59,-22.67,-23.23,0,*75
1501372814.56,55399,19.94,74472.5,7.59,-22.67,-23.23,0,*74
1501372815.8,55400,19.94,74474.8,7.59,-22.57,-23.23,0,*70
1501372817.02,55401,19.94,74468.5,7.59,-22.67,-23.23,0,*72
1501372818.27,55402,19.94,74474.3,7.57,-22.73,-23.39,0,*71
1501372819.49,55403,19.94,74472.0,7.57,-22.63,-23.09,0,*72
1501372820.72,55404,19.94,74474.8,7.55,-22.67,-23.19,0,*72
1501372821.95,55405,19.94,74470.3,7.55,-22.63,-23.19,0,*77
1501372823.17,55406,19.94,74468.0,7.57,-22.63,-23.13,0,*7C
1501372824.4,55407,19.94,74470.0,7.55,-22.63,-23.19,0,*75
1501372825.63,55408,19.88,74470.3,7.55,-22.67,-23.19,0,*7E
1501372826.86,55409,19.94,74474.8,7.55,-22.67,-23.19,0,*7F
1501372828.12,55410,19.94,74472.5,7.53,-22.47,-23.13,0,*79
1501372829.35,55411,19.94,74470.5,7.53,-22.53,-23.13,0,*7D
1501372830.55,55412,19.94,74468.3,7.51,-22.41,-23.13,0,*7F
1501372831.81,55413,19.94,74474.3,7.53,-22.31,-22.97,0,*76
1501372833.04,55414,19.94,74468.0,7.53,-22.37,-22.97,0,*77
1501372834.24,55415,19.94,74470.0,7.51,-22.27,-22.87,0,*74
1501372835.5,55416,19.94,74474.3,7.53,-22.21,-22.93,0,*76
1501372836.7,55417,19.94,74470.8,7.51,-22.27,-22.87,0,*76
1501372837.91,55418,19.94,74474.0,7.51,-21.93,-22.53,0,*7C
1501372839.19,55419,19.94,74472.0,7.53,-22.17,-22.77,0,*76
1501372840.45,55420,19.94,74468.8,7.53,-22.17,-22.67,0,*7D
1501372841.68,55421,19.94,74466.5,7.53,-21.43,-22.11,0,*7F
1501372842.93,55422,19.94,74466.3,7.53,-21.43,-21.97,0,*71
1501372844.18,55423,19.94,74466.5,7.53,-21.39,-21.97,0,*7D
1501372845.44,55424,19.94,74466.0,7.53,-21.57,-22.11,0,*7F
1501372846.7,55425,19.94,74466.3,7.53,-21.53,-22.03,0,*79
1501372847.96,55426,19.94,74466.5,7.53,-21.87,-22.53,0,*76
1501372849.24,55427,19.94,74464.0,7.53,-22.17,-22.77,0,*7B
1501372850.47,55428,19.94,74470.8,7.55,-22.31,-22.83,0,*7D
1501372851.68,55429,19.94,74472.3,7.55,-22.37,-22.97,0,*7F
1501372852.93,55430,19.94,74472.8,7.53,-22.31,-22.83,0,*72
1501372854.22,55431,19.94,74472.0,7.53,-21.87,-22.47,0,*75
1501372855.52,55432,19.94,74474.8,7.53,-21.87,-22.47,0,*76
1501372856.72,55433,19.94,74476.0,7.55,-22.03,-22.63,0,*78
1501372857.97,55434,19.94,74476.8,7.53,-21.73,-22.21,0,*7B
1501372859.2,55435,19.94,74472.8,7.53,-22.03,-22.63,0,*78
1501372860.4,55436,19.94,74474.0,7.55,-22.03,-22.53,0,*7E
1501372861.64,55437,19.94,74470.0,7.55,-21.53,-22.11,0,*7F
1501372862.87,55438,19.94,74472.3,7.53,-22.03,-22.63,0,*75
1501372864.1,55439,19.94,74474.3,7.55,-22.17,-22.67,0,*73
1501372865.38,55440,19.94,74472.0,7.53,-22.21,-22.77,0,*7F
1501372866.67,55441,19.94,74474.3,7.53,-21.97,-22.47,0,*73
1501372867.95,55442,19.94,74472.5,7.53,-21.97,-22.47,0,*70
1501372869.15,55443,19.94,74470.0,7.55,-22.03,-22.53,0,*7C
1501372870.35,55444,19.94,74468.8,7.55,-22.03,-22.67,0,*7C
1501372871.58,55445,19.94,74466.3,7.53,-22.03,-22.63,0,*7F
1501372872.78,55446,19.94,74464.0,7.55,-22.03,-22.67,0,*7E
1501372874.01,55447,19.94,74468.8,7.55,-22.11,-22.73,0,*79
1501372875.24,55448,19.94,74470.8,7.55,-22.21,-22.93,0,*7B
1501372876.5,55449,19.94,74468.0,7.53,-22.21,-22.83,0,*7D
1501372877.7,55450,19.94,74470.0,7.51,-21.93,-22.53,0,*70
1501372878.99,55451,19.94,74466.3,7.53,-21.97,-22.47,0,*72
1501372880.22,55452,19.94,74470.3,7.53,-22.11,-22.63,0,*7A
1501372881.47,55453,19.94,74470.5,7.53,-21.87,-22.37,0,*76
1501372882.7,55454,19.94,74470.8,7.53,-22.03,-22.63,0,*7F
1501372883.97,55455,19.94,74470.8,7.55,-21.87,-22.47,0,*71
1501372885.26,55456,19.94,74468.3,7.53,-21.87,-22.47,0,*74
1501372886.54,55457,19.94,74468.0,7.53,-21.97,-22.47,0,*74
1501372887.83,55458,19.94,74470.0,7.53,-21.97,-22.47,0,*7B
1501372889.1,55459,19.88,74464.3,7.53,-21.57,-22.21,0,*76
1501372890.37,55460,19.94,74470.8,7.53,-21.53,-22.03,0,*78
1501372891.59,55461,19.94,74470.8,7.55,-21.57,-22.11,0,*78
1501372892.85,55462,19.94,74474.3,7.53,-21.53,-22.11,0,*79
1501372894.11,55463,19.94,74470.3,7.55,-21.23,-21.87,0,*75
1501372895.39,55464,19.94,74474.0,7.57,-20.99,-21.53,0,*79
1501372896.59,55465,19.94,74474.0,7.55,-20.93,-21.39,0,*7C
1501372897.83,55466,19.94,74470.8,7.57,-20.39,-20.89,0,*77
1501372899.08,55467,19.88,74470.3,7.61,-20.39,-20.83,0,*79
1501372900.33,55468,19.94,74474.8,7.59,-20.19,-20.79,0,*7A
1501372901.6,55469,19.88,74474.0,7.61,-20.49,-21.03,0,*79
1501372902.83,55470,19.94,74470.5,7.61,-20.93,-21.47,0,*76
1501372904.05,55471,19.94,74468.5,7.63,-20.89,-21.53,0,*7B
1501372905.33,55472,19.94,74470.8,7.65,-20.79,-21.27,0,*72
1501372906.59,55473,19.94,74468.3,7.65,-20.59,-20.99,0,*75
1501372907.81,55474,19.94,74468.8,7.65,-20.89,-21.43,0,*79
1501372909.09,55475,19.94,74470.8,7.65,-20.99,-21.67,0,*7F
1501372910.36,55476,19.94,74470.3,7.65,-20.99,-21.53,0,*7B
1501372911.56,55477,19.94,74468.3,7.67,-20.89,-21.39,0,*75
1501372912.76,55478,19.88,74468.5,7.67,-20.93,-21.47,0,*78
1501372914.0,55479,19.88,74468.0,7.71,-20.79,-21.33,0,*79
1501372915.22,55480,19.94,74470.8,7.71,-21.03,-21.47,0,*70
1501372916.47,55481,19.88,74466.8,7.67,-21.03,-21.67,0,*74
1501372917.68,55482,19.94,74470.8,7.67,-20.89,-21.47,0,*76
1501372918.87,55483,19.94,74474.0,7.71,-20.69,-21.17,0,*7B
1501372920.12,55484,19.94,74474.0,7.73,-20.53,-21.13,0,*73
1501372921.36,55485,19.88,74468.5,7.75,-20.35,-20.83,0,*7C
1501372922.62,55486,19.94,74470.8,7.77,-20.73,-21.23,0,*74
1501372923.81,55487,19.94,74472.0,7.75,-20.63,-21.09,0,*7E
1501372925.06,55488,19.94,74468.5,7.75,-20.79,-21.27,0,*76
1501372926.3,55489,19.88,74470.3,7.75,-20.99,-21.57,0,*7E
1501372927.53,55490,19.94,74472.5,7.75,-21.53,-22.07,0,*77
1501372928.75,55491,19.88,74472.0,7.77,-20.93,-21.39,0,*77
1501372929.97,55492,19.94,74468.5,7.75,-20.83,-21.39,0,*77
1501372931.25,55493,19.94,74468.3,7.77,-21.27,-21.87,0,*7E
1501372932.48,55494,19.94,74464.8,7.77,-21.43,-22.03,0,*74
1501372933.76,55495,19.88,74460.8,7.77,-21.67,-22.31,0,*72
1501372935.02,55496,19.94,74468.0,7.77,-21.73,-22.31,0,*74
1501372936.25,55497,19.94,74464.8,7.77,-21.93,-22.63,0,*7C
1501372937.47,55498,19.94,74464.5,7.75,-21.73,-22.31,0,*78
1501372938.7,55499,19.88,74464.0,7.75,-21.73,-22.31,0,*79
1501372939.9,55500,19.88,74464.3,7.75,-21.93,-22.57,0,*76
1501372941.12,55501,19.94,74466.5,7.75,-21.83,-22.37,0,*70
1501372942.3,55502,19.88,74466.5,7.75,-22.07,-22.67,0,*79
1501372943.53,55503,19.94,74468.8,7.75,-22.21,-22.87,0,*72
1501372944.75,55504,19.88,74466.0,7.73,-22.27,-22.83,0,*71
1501372945.97,55505,19.88,74466.5,7.73,-21.93,-22.53,0,*71
1501372947.2,55506,19.94,74470.5,7.75,-21.93,-22.47,0,*71
1501372948.44,55507,19.94,74468.5,7.73,-21.57,-22.07,0,*7A
1501372949.72,55508,19.94,74470.0,7.73,-21.33,-21.87,0,*7C
1501372950.94,55509,19.94,74470.3,7.75,-21.17,-21.87,0,*7D
1501372952.16,55510,19.94,74470.8,7.73,-21.13,-21.73,0,*7C
1501372953.35,55511,19.94,74470.8,7.75,-20.93,-21.43,0,*71
1501372954.59,55512,19.88,74468.3,7.73,-20.99,-21.43,0,*7E
1501372955.79,55513,19.94,74464.8,7.75,-20.93,-21.43,0,*73
1501372957.04,55514,19.94,74470.0,7.77,-21.43,-21.87,0,*72
1501372958.26,55515,19.94,74466.0,7.75,-21.39,-21.87,0,*7C
1501372959.48,55516,19.88,74464.8,7.75,-21.09,-21.67,0,*72
1501372960.71,55517,19.94,74464.0,7.77,-21.39,-21.93,0,*79
1501372961.96,55518,19.94,74470.3,7.77,-21.73,-22.31,0,*73
1501372963.22,55519,19.88,74464.8,7.77,-21.87,-22.63,0,*7E
1501372964.45,55520,19.94,74466.8,7.77,-21.93,-22.53,0,*72
1501372965.68,55521,19.88,74466.5,7.77,-21.93,-22.67,0,*74
1501372966.9,55522,19.94,74464.8,7.75,-21.83,-22.37,0,*71
1501372968.13,55523,19.88,74466.5,7.75,-21.87,-22.53,0,*76
1501372969.37,55524,19.94,74470.0,7.73,-21.97,-22.67,0,*71
1501372970.61,55525,19.94,74470.5,7.75,-21.57,-22.21,0,*78
1501372971.84,55526,19.88,74464.3,7.77,-21.43,-22.03,0,*7C
1501372973.06,55527,19.94,74468.0,7.75,-21.13,-21.67,0,*7B
1501372974.25,55528,19.88,74466.8,7.75,-21.43,-21.93,0,*7A
1501372975.44,55529,19.94,74468.5,7.75,-21.39,-21.73,0,*78
1501372976.69,55530,19.94,74470.8,7.75,-21.57,-22.17,0,*79
1501372977.94,55531,19.94,74468.8,7.73,-21.47,-21.97,0,*74
1501372979.13,55532,19.94,74468.0,7.75,-21.43,-21.93,0,*71
1501372980.38,55533,19.88,74470.3,7.75,-21.67,-22.21,0,*7C
1501372981.64,55534,19.94,74470.8,7.77,-21.53,-21.93,0,*74
1501372982.89,55535,19.88,74466.5,7.77,-21.23,-21.73,0,*7C
1501372984.11,55536,19.88,74468.3,7.77,-21.39,-22.03,0,*70
1501372985.33,55537,19.88,74464.5,7.79,-21.63,-22.17,0,*75
1501372986.56,55538,19.94,74468.0,7.79,-21.57,-22.03,0,*78
1501372987.8,55539,19.88,74464.8,7.77,-21.39,-21.83,0,*74
1501372989.03,55540,19.94,74470.5,7.79,-21.23,-21.77,0,*74
1501372990.29,55541,19.94,74470.0,7.77,-21.53,-22.07,0,*78
1501372991.5,55542,19.94,74468.0,7.79,-21.39,-21.97,0,*73
1501372992.73,55543,19.88,74466.0,7.79,-21.53,-22.03,0,*70
1501372993.96,55544,19.94,74468.8,7.79,-21.53,-22.11,0,*74
1501372995.19,55545,19.94,74470.5,7.79,-21.53,-22.03,0,*76
1501372996.46,55546,19.94,74466.0,7.77,-21.67,-22.21,0,*7C
1501372997.72,55547,19.94,74468.8,7.81,-21.33,-21.83,0,*7E
1501372998.94,55548,19.94,74470.0,7.79,-21.03,-21.47,0,*7D
1501373000.15,55549,19.94,74466.5,7.81,-20.89,-21.47,0,*78
1501373001.34,55550,19.94,74470.0,7.79,-21.09,-21.63,0,*78
1501373002.59,55551,19.94,74468.8,7.79,-21.33,-21.87,0,*7A
1501373003.81,55552,19.94,74470.3,7.81,-20.99,-21.43,0,*77
1501373005.06,55553,19.94,74474.0,7.83,-21.03,-21.43,0,*76
1501373006.31,55554,19.94,74468.8,7.81,-20.99,-21.57,0,*74
1501373007.52,55555,19.88,74470.0,7.81,-21.17,-21.77,0,*70
1501373008.76,55556,19.94,74468.0,7.83,-21.43,-21.97,0,*7E
1501373009.98,55557,19.94,74474.3,7.83,-21.13,-21.73,0,*70
1501373011.21,55558,19.94,74472.5,7.83,-21.17,-21.77,0,*7F
1501373012.43,55559,19.94,74466.0,7.83,-21.43,-21.93,0,*75
1501373013.65,55560,19.94,74464.3,7.83,-21.17,-21.73,0,*70
1501373014.87,55561,19.94,74470.8,7.83,-21.17,-21.63,0,*70
1501373016.1,55562,19.94,74466.5,7.85,-21.27,-21.77,0,*73
1501373017.32,55563,19.94,74464.8,7.83,-21.63,-22.11,0,*77
1501373018.59,55564,19.94,74462.8,7.85,-21.67,-22.17,0,*74
1501373019.79,55565,19.94,74466.5,7.85,-22.07,-22.63,0,*73
1501373021.02,55566,19.94,74464.3,7.85,-22.03,-22.47,0,*72
1501373022.3,55567,19.88,74466.0,7.83,-22.21,-22.77,0,*76
1501373023.5,55568,19.94,74468.5,7.81,-22.41,-23.09,0,*75
1501373024.71,55569,19.94,74464.0,7.81,-22.53,-23.09,0,*77
1501373025.95,55570,19.94,74468.0,7.81,-22.57,-23.19,0,*7A
1501373027.17,55571,19.88,74462.8,7.83,-22.41,-23.09,0,*7F
1501373028.41,55572,19.94,74468.0,7.81,-22.53,-23.19,0,*7C
1501373029.65,55573,19.94,74468.3,7.77,-22.63,-23.29,0,*74
1501373030.88,55574,19.94,74466.5,7.79,-22.57,-23.23,0,*70
1501373032.11,55575,19.94,74464.0,7.79,-22.47,-23.13,0,*73
1501373033.36,55576,19.94,74468.0,7.77,-22.53,-23.29,0,*72
1501373034.61,55577,19.94,74466.3,7.77,-22.63,-23.29,0,*70
1501373035.87,55578,19.94,74468.3,7.77,-22.53,-23.19,0,*7F
1501373037.11,55579,19.94,74466.3,7.77,-22.63,-23.29,0,*7E
1501373038.33,55580,19.94,74466.5,7.75,-22.31,-22.83,0,*7C
1501373039.55,55581,19.94,74468.8,7.75,-22.47,-23.13,0,*74
1501373040.78,55582,19.94,74470.0,7.73,-22.41,-23.09,0,*7C
1501373042.03,55583,19.94,74468.5,7.75,-21.87,-22.47,0,*79
1501373043.26,55584,19.94,74464.5,7.75,-21.93,-22.47,0,*7B
1501373044.48,55585,19.94,74464.8,7.73,-22.07,-22.57,0,*73
1501373045.67,55586,19.94,74464.8,7.75,-22.03,-22.53,0,*76
1501373046.92,55587,19.94,74464.3,7.75,-22.21,-22.77,0,*71
1501373048.14,55588,19.94,74466.3,7.73,-22.11,-22.57,0,*79
1501373049.34,55589,19.88,74464.0,7.75,-21.93,-22.53,0,*73
1501373050.55,55590,19.94,74466.5,7.73,-22.07,-22.57,0,*77
1501373051.8,55591,19.94,74466.3,7.73,-22.21,-22.67,0,*71
1501373053.01,55592,19.88,74466.3,7.73,-22.07,-22.67,0,*76
1501373054.23,55593,19.94,74468.3,7.73,-22.07,-22.67,0,*77
1501373055.44,55594,19.94,74468.8,7.73,-22.27,-22.87,0,*7C
1501373056.69,55595,19.94,74470.0,7.73,-21.87,-22.41,0,*7E
1501373057.93,55596,19.94,74468.0,7.73,-21.27,-21.77,0,*71
1501373059.15,55597,19.94,74466.8,7.73,-21.43,-21.93,0,*78
1501373060.35,55598,19.94,74464.8,7.75,-21.43,-21.93,0,*71
1501373061.59,55599,19.94,74468.0,7.73,-21.73,-22.21,0,*7F
1501373062.84,55600,19.88,74464.5,7.73,-21.63,-22.21,0,*7D
1501373064.09,55601,19.94,74464.0,7.75,-21.57,-22.17,0,*78
1501373065.31,55602,19.94,74464.3,7.73,-21.47,-21.93,0,*73
1501373066.53,55603,19.94,74470.3,7.75,-21.73,-22.31,0,*78
1501373067.78,55604,19.94,74468.0,7.73,-21.73,-22.21,0,*78
1501373069.0,55605,19.94,74468.0,7.75,-21.73,-22.31,0,*7E
1501373070.23,55606,19.94,74470.5,7.75,-22.17,-22.67,0,*7F
1501373071.45,55607,19.94,74464.0,7.75,-21.87,-22.37,0,*71
1501373072.7,55608,19.88,74464.0,7.75,-21.67,-22.31,0,*76
1501373073.95,55609,19.88,74462.8,7.75,-21.83,-22.31,0,*7D
1501373075.17,55610,19.94,74464.8,7.75,-21.73,-22.21,0,*7B
1501373076.39,55611,19.94,74468.8,7.75,-21.09,-21.67,0,*76
1501373077.62,55612,19.94,74468.0,7.75,-21.39,-21.87,0,*78
1501373078.84,55613,19.88,74466.8,7.75,-21.39,-21.83,0,*7D
1501373080.09,55614,19.88,74464.8,7.77,-21.39,-21.87,0,*7C
1501373081.37,55615,19.94,74464.3,7.77,-21.67,-22.17,0,*7C
1501373082.63,55616,19.94,74464.5,7.77,-21.53,-22.03,0,*7D
1501373083.85,55617,19.94,74466.3,7.77,-21.43,-21.93,0,*77
1501373085.05,55618,19.94,74466.0,7.79,-21.77,-22.27,0,*7D
1501373086.33,55619,19.94,74468.3,7.77,-21.83,-22.21,0,*7F
1501373087.56,55620,19.94,74464.3,7.77,-21.39,-21.93,0,*7E
1501373088.77,55621,19.88,74466.0,7.79,-21.39,-21.83,0,*70
1501373089.99,55622,19.94,74470.0,7.79,-21.03,-21.63,0,*74
1501373091.23,55623,19.94,74470.8,7.81,-20.69,-21.27,0,*7F
1501373092.43,55624,19.94,74468.8,7.81,-20.69,-21.13,0,*7F
1501373093.63,55625,19.94,74464.8,7.81,-20.69,-21.17,0,*7A
1501373094.86,55626,19.94,74464.3,7.83,-20.69,-21.17,0,*7B
1501373096.11,55627,19.94,74470.0,7.83,-20.89,-21.33,0,*72
1501373097.34,55628,19.94,74466.0,7.85,-21.57,-22.07,0,*7D
1501373098.54,55629,19.94,74468.0,7.85,-21.39,-22.07,0,*74
1501373099.77,55630,19.94,74470.3,7.85,-21.67,-22.07,0,*77
1501373101.0,55631,19.94,74470.3,7.85,-21.27,-21.77,0,*76
1501373102.24,55632,19.94,74468.3,7.85,-21.77,-22.47,0,*70
1501373103.48,55633,19.94,74470.5,7.83,-21.83,-22.41,0,*7A
1501373104.71,55634,19.94,74464.8,7.83,-21.93,-22.53,0,*7F
1501373105.94,55635,19.94,74468.5,7.85,-22.31,-22.97,0,*7B
1501373107.15,55636,19.94,74472.5,7.85,-22.37,-22.97,0,*7E
1501373108.38,55637,19.94,74470.5,7.83,-22.53,-23.09,0,*7D
1501373109.61,55638,19.94,74468.5,7.81,-21.97,-22.57,0,*71
1501373110.86,55639,19.94,74468.0,7.83,-21.97,-22.57,0,*72
1501373112.13,55640,19.94,74468.3,7.83,-22.21,-22.73,0,*74
1501373113.33,55641,19.94,74468.0,7.81,-22.07,-22.57,0,*75
1501373114.56,55642,19.94,74466.8,7.81,-22.21,-22.67,0,*71
1501373115.76,55643,19.94,74470.0,7.81,-21.93,-22.41,0,*7E
1501373116.96,55644,19.94,74470.8,7.81,-21.77,-22.27,0,*73
1501373118.16,55645,19.94,74468.0,7.79,-22.11,-22.57,0,*71
1501373119.39,55646,19.94,74470.0,7.81,-21.27,-21.73,0,*76
1501373120.59,55647,19.94,74466.5,7.81,-21.17,-21.63,0,*75
1501373121.83,55648,19.94,74470.0,7.83,-21.63,-22.21,0,*7E
1501373123.06,55649,19.94,74466.5,7.81,-21.57,-22.11,0,*79
1501373124.31,55650,19.94,74468.8,7.83,-21.97,-22.57,0,*7D
1501373125.54,55651,19.94,74464.8,7.81,-21.83,-22.37,0,*7D
1501373126.81,55652,19.94,74470.5,7.83,-21.57,-21.97,0,*7C
1501373128.06,55653,19.94,74468.3,7.83,-21.33,-21.93,0,*7B
1501373129.28,55654,19.94,74468.3,7.83,-21.77,-22.27,0,*70
1501373130.48,55655,19.94,74464.0,7.81,-22.11,-22.67,0,*74
1501373131.73,55656,19.88,74464.8,7.83,-21.97,-22.53,0,*7F
1501373132.98,55657,19.88,74466.5,7.81,-22.21,-22.73,0,*70
1501373134.21,55658,19.88,74464.5,7.81,-22.41,-23.03,0,*7F
1501373135.42,55659,19.94,74470.5,7.81,-22.53,-23.09,0,*77
1501373136.65,55660,19.94,74466.8,7.81,-22.27,-22.77,0,*76
1501373137.86,55661,19.88,74466.0,7.81,-22.37,-22.93,0,*7C
1501373139.07,55662,19.94,74466.5,7.81,-22.53,-23.09,0,*7F
1501373140.31,55663,19.94,74466.3,7.81,-22.57,-23.19,0,*7B
1501373141.53,55664,19.94,74464.0,7.79,-22.63,-23.23,0,*75
1501373142.78,55665,19.94,74464.0,7.77,-22.67,-23.29,0,*74
1501373144.0,55666,19.94,74464.5,7.79,-22.63,-23.23,0,*77
1501373145.25,55667,19.94,74464.8,7.77,-22.67,-23.29,0,*76
1501373146.49,55668,19.94,74464.5,7.79,-22.73,-23.29,0,*72
1501373147.77,55669,19.94,74466.8,7.77,-22.77,-23.33,0,*72
1501373149.01,55670,19.94,74464.5,7.77,-22.67,-23.29,0,*70
1501373150.26,55671,19.94,74464.0,7.77,-22.67,-23.29,0,*71
1501373151.47,55672,19.94,74464.5,7.75,-22.67,-23.29,0,*70
1501373152.74,55673,19.94,74464.5,7.73,-22.73,-23.33,0,*79
1501373153.99,55674,19.94,74464.8,7.73,-22.67,-23.23,0,*7A
1501373155.21,55675,19.94,74466.5,7.75,-22.67,-23.29,0,*77
1501373156.47,55676,19.94,74470.8,7.73,-22.73,-23.33,0,*7C
1501373157.74,55677,19.94,74470.5,7.73,-22.73,-23.33,0,*7D
1501373158.98,55678,19.94,74468.5,7.73,-22.73,-23.39,0,*78
1501373160.22,55679,19.94,74468.8,7.73,-22.67,-23.33,0,*76
1501373161.49,55680,19.94,74468.8,7.73,-22.73,-23.33,0,*75
1501373162.68,55681,19.94,74468.8,7.71,-22.41,-22.87,0,*79
1501373163.9,55682,19.94,74466.5,7.71,-22.11,-22.73,0,*74
1501373165.09,55683,19.94,74468.8,7.71,-22.07,-22.53,0,*70
1501373166.29,55684,19.94,74468.8,7.71,-21.93,-22.37,0,*7B
1501373167.51,55685,19.94,74468.3,7.71,-21.63,-21.97,0,*7C
1501373168.71,55686,19.94,74470.3,7.71,-21.73,-22.07,0,*74
1501373169.93,55687,19.94,74466.3,7.71,-21.43,-21.87,0,*7D
1501373171.15,55688,19.94,74472.5,7.75,-21.03,-21.39,0,*77
1501373172.34,55689,19.94,74468.8,7.75,-20.93,-21.43,0,*73
1501373173.56,55690,19.94,74468.3,7.75,-20.99,-21.43,0,*71
1501373174.79,55691,19.94,74474.3,7.77,-20.93,-21.39,0,*75
1501373176.04,55692,19.88,74466.3,7.77,-21.39,-21.67,0,*7C
1501373177.29,55693,19.94,74470.5,7.79,-21.33,-21.67,0,*79
1501373178.49,55694,19.94,74470.3,7.79,-21.17,-21.63,0,*7C
1501373179.72,55695,19.94,74470.5,7.81,-21.47,-21.83,0,*71
1501373180.97,55696,19.94,74470.0,7.79,-21.53,-21.97,0,*75
1501373182.17,55697,19.94,74468.5,7.81,-21.73,-22.27,0,*79
1501373183.4,55698,19.94,74468.0,7.79,-21.77,-22.17,0,*76
1501373184.61,55699,19.94,74466.5,7.81,-21.77,-22.27,0,*73
1501373185.86,55700,19.94,74468.8,7.79,-21.97,-22.47,0,*7D
1501373187.12,55701,19.94,74470.0,7.79,-21.87,-22.47,0,*7D
1501373188.34,55702,19.88,74468.5,7.77,-22.07,-22.63,0,*7D
1501373189.53,55703,19.94,74470.8,7.79,-22.11,-22.57,0,*72
1501373190.72,55704,19.88,74466.8,7.79,-22.03,-22.41,0,*71
1501373191.92,55705,19.94,74468.8,7.81,-21.63,-22.07,0,*70
1501373193.13,55706,19.94,74474.3,7.81,-21.47,-21.93,0,*7B
1501373194.35,55707,19.94,74472.0,7.81,-21.17,-21.57,0,*77
1501373195.58,55708,19.94,74474.0,7.81,-20.99,-21.43,0,*7A
1501373196.8,55709,19.94,74474.0,7.81,-21.47,-21.97,0,*70
1501373198.01,55710,19.88,74470.3,7.81,-21.47,-21.93,0,*7C
1501373199.24,55711,19.94,74474.8,7.83,-21.73,-22.11,0,*71
1501373200.49,55712,19.94,74472.0,7.83,-21.57,-21.93,0,*7D
1501373201.71,55713,19.88,74470.3,7.83,-21.43,-21.93,0,*79
1501373202.99,55714,19.88,74472.3,7.83,-20.83,-21.27,0,*7C
1501373204.2,55715,19.94,74474.0,7.85,-20.63,-20.93,0,*7B
1501373205.43,55716,19.88,74464.0,7.85,-21.39,-21.87,0,*72
1501373206.65,55717,19.94,74470.5,7.85,-21.27,-21.73,0,*77
1501373207.88,55718,19.94,74470.8,7.87,-21.43,-21.77,0,*7C
1501373209.14,55719,19.94,74470.5,7.85,-21.87,-22.31,0,*76
1501373210.4,55720,19.94,74468.5,7.87,-21.77,-22.31,0,*71
1501373211.66,55721,19.94,74466.5,7.87,-21.77,-22.21,0,*71
1501373212.89,55722,19.94,74466.8,7.85,-22.03,-22.47,0,*70
1501373214.15,55723,19.94,74470.5,7.87,-22.17,-22.63,0,*70
1501373215.41,55724,19.94,74470.0,7.87,-22.21,-22.87,0,*78
1501373216.61,55725,19.94,74466.0,7.85,-22.07,-22.63,0,*75
1501373217.87,55726,19.88,74464.8,7.87,-22.17,-22.53,0,*76
1501373219.12,55727,19.94,74468.3,7.85,-22.31,-22.73,0,*73
1501373220.35,55728,19.88,74468.3,7.85,-22.47,-22.97,0,*77
1501373221.59,55729,19.94,74470.0,7.87,-22.37,-22.87,0,*72
1501373222.82,55730,19.88,74466.8,7.85,-22.07,-22.47,0,*77
1501373224.08,55731,19.94,74468.3,7.85,-21.87,-22.31,0,*7C
1501373225.33,55732,19.88,74466.0,7.87,-22.07,-22.47,0,*77
1501373226.56,55733,19.94,74468.8,7.85,-21.93,-22.21,0,*7A
1501373227.79,55734,19.94,74470.5,7.85,-21.73,-22.17,0,*76
1501373229.06,55735,19.94,74468.8,7.85,-21.67,-21.87,0,*78
1501373230.29,55736,19.94,74470.5,7.85,-21.57,-21.93,0,*7D
1501373231.54,55737,19.94,74468.8,7.85,-21.87,-22.21,0,*7B
1501373232.83,55738,19.94,74464.0,7.87,-21.87,-22.31,0,*77
1501373234.08,55739,19.88,74466.8,7.87,-21.77,-22.21,0,*78
1501373235.34,55740,19.94,74470.0,7.85,-21.87,-22.21,0,*7B
1501373236.6,55741,19.88,74464.3,7.87,-21.93,-22.31,0,*7C
1501373237.85,55742,19.94,74464.8,7.87,-22.03,-22.31,0,*75
1501373239.11,55743,19.94,74464.8,7.87,-21.77,-22.21,0,*75
1501373240.4,55744,19.94,74462.5,7.87,-22.17,-22.47,0,*77
1501373241.65,55745,19.88,74464.0,7.85,-22.31,-22.73,0,*77
1501373242.91,55746,19.94,74464.3,7.87,-22.31,-22.63,0,*77
1501373244.17,55747,19.94,74460.8,7.87,-22.21,-22.63,0,*77
1501373245.4,55748,19.94,74464.8,7.85,-22.31,-22.67,0,*7F
1501373246.65,55749,19.94,74460.8,7.87,-22.21,-22.53,0,*7A
1501373247.91,55750,19.94,74466.5,7.87,-22.21,-22.63,0,*71
1501373249.2,55751,19.94,74466.8,7.87,-21.87,-22.21,0,*79
1501373250.48,55752,19.94,74470.8,7.87,-21.87,-22.21,0,*7A
1501373251.73,55753,19.94,74468.3,7.87,-21.67,-22.07,0,*71
1501373252.96,55754,19.94,74470.8,7.89,-21.39,-21.67,0,*76
1501373254.22,55755,19.88,74466.8,7.85,-21.57,-21.87,0,*7D
1501373255.51,55756,19.88,74466.8,7.87,-21.67,-21.87,0,*7F
1501373256.74,55757,19.88,74464.3,7.93,-21.27,-21.63,0,*75
1501373257.99,55758,19.94,74468.3,7.93,-21.33,-21.67,0,*7B
1501373259.22,55759,19.94,74470.3,7.93,-21.47,-21.97,0,*76
1501373260.45,55760,19.94,74470.0,7.93,-21.93,-22.21,0,*7B
1501373261.68,55761,19.88,74464.5,7.89,-22.03,-22.31,0,*7A
1501373262.88,55762,19.94,74468.3,7.93,-21.93,-22.27,0,*7F
1501373264.11,55763,19.94,74468.8,7.93,-21.83,-22.11,0,*7A
1501373265.34,55764,19.88,74464.8,7.93,-21.83,-22.11,0,*7D
1501373266.56,55765,19.94,74466.3,7.89,-21.97,-22.41,0,*77
1501373267.77,55766,19.88,74464.5,7.93,-22.37,-22.63,0,*76
1501373268.97,55767,19.94,74468.3,7.89,-22.67,-23.09,0,*74
1501373270.2,55768,19.94,74468.3,7.93,-22.63,-23.03,0,*7E
1501373271.4,55769,19.88,74466.8,7.89,-22.63,-23.09,0,*7E
1501373272.61,55770,19.88,74468.3,7.89,-22.67,-23.13,0,*79
1501373273.84,55771,19.94,74464.3,7.89,-22.31,-22.63,0,*7D
1501373275.09,55772,19.88,74468.5,7.87,-22.47,-22.87,0,*7B
1501373276.33,55773,19.94,74470.5,7.87,-22.37,-22.67,0,*73
1501373277.61,55774,19.88,74466.3,7.87,-21.87,-22.17,0,*7B
1501373278.88,55775,19.88,74466.8,7.87,-21.93,-22.17,0,*7F
1501373280.13,55776,19.88,74466.3,7.87,-22.03,-22.21,0,*73
1501373281.42,55777,19.88,74464.3,7.87,-22.17,-22.47,0,*77
1501373282.64,55778,19.94,74468.3,7.89,-21.63,-21.97,0,*78
1501373283.84,55779,19.94,74468.8,7.89,-21.47,-21.73,0,*75
1501373285.09,55780,19.94,74470.3,7.93,-21.33,-21.57,0,*7D
1501373286.34,55781,19.94,74470.8,7.93,-21.33,-21.57,0,*7C
1501373287.59,55782,19.94,74468.8,7.93,-21.33,-21.57,0,*7F
1501373288.84,55783,19.88,74466.0,7.95,-21.47,-21.67,0,*78
1501373290.09,55784,19.88,74464.8,7.95,-21.63,-21.97,0,*76
1501373291.32,55785,19.88,74466.0,7.95,-21.77,-22.07,0,*78
1501373292.57,55786,19.88,74468.5,7.95,-21.67,-22.07,0,*7A
1501373293.83,55787,19.88,74466.8,7.95,-21.67,-22.11,0,*7C
1501373295.08,55788,19.88,74470.0,7.95,-21.67,-22.07,0,*74
1501373296.33,55789,19.88,74468.5,7.95,-21.63,-21.97,0,*7B
1501373297.58,55790,19.94,74470.0,7.97,-21.87,-22.21,0,*75
1501373298.84,55791,19.88,74468.8,7.95,-21.93,-22.21,0,*73
1501373300.05,55792,19.88,74468.0,7.95,-22.07,-22.37,0,*79
1501373301.31,55793,19.88,74468.8,7.95,-21.67,-22.07,0,*7E
1501373302.56,55794,19.88,74470.5,7.95,-21.63,-21.97,0,*77